AirNav   Pilot Hours Calculator
 
 402 users online  

00S Mc Kenzie Bridge State Airport
Mc Kenzie Bridge, Oregon, USA

GOING TO MC KENZIE BRIDGE?


FAA INFORMATION EFFECTIVE 25 MARCH 2021

Location

FAA Identifier: 00S
Lat/Long: 44-10-53.6000N 122-05-08.0000W
44-10.893333N 122-05.133333W
44.1815556,-122.0855556
(estimated)
Elevation: 1620 ft. / 494 m (estimated)
Variation: 19E (1985)
From city: 3 miles E of MC KENZIE BRIDGE, OR
Time zone: UTC -7 (UTC -8 during Standard Time)
Zip code: 97413

Airport Operations

Airport use: Open to the public
Activation date: 08/1950
Control tower: no
ARTCC: SEATTLE CENTER
FSS: MC MINNVILLE FLIGHT SERVICE STATION
NOTAMs facility: MMV (NOTAM-D service available)
Attendance: UNATNDD
Wind indicator: yes
Segmented circle: yes

Airport Communications

CTAF: 122.9

Nearby radio navigation aids

VOR radial/distance  VOR name  Freq  Var
DSDr245/33.9DESCHUTES VORTAC117.6018E

Airport Services

Parking: tiedowns
Airframe service: NONE
Powerplant service: NONE
Bottled oxygen: NONE
Bulk oxygen: NONE

Runway Information

Runway 6/24

Dimensions: 2600 x 90 ft. / 792 x 27 m
Surface: turf, in fair condition
RY 06/24 ROUGH ON EAST HALF.
Runway edge markings: RY 06 THLD MARKED WITH WHITE MATS.
RUNWAY 6  RUNWAY 24
Latitude: 44-10.847212N44-10.938790N
Longitude: 122-05.423373W122-04.842345W
Elevation: 1595.0 ft.1647.0 ft.
Traffic pattern: leftleft
Runway heading: 059 magnetic, 078 true239 magnetic, 258 true
Markings: NSTD
Runway end identifier lights: nono
Obstructions: 125 ft. trees, 1400 ft. from runway, 120 ft. left of centerline, 11:1 slope to clear144 ft. trees, 60 ft. from runway

Airport Ownership and Management from official FAA records

Ownership: Publicly-owned
Owner: OREGON DEPT OF AVIATION
3040 25TH ST, SE
SALEM, OR 97302
Phone 503-378-4880
Manager: STATE AIRPORTS MGR
3040 25TH ST, SE
SALEM, OR 97302
Phone 503-378-4880

Airport Operational Statistics

Aircraft operations: avg 33/month *
100% transient general aviation
* for 12-month period ending 15 January 2019

Additional Remarks

OWNER ADVISES CTC WITH OR DEPT OF AVIATION (503-378-4880) PRIOR TO USE.
WILDLIFE ON AND INVOF ARPT YEAR ROUND.
LAND EAST - TAKEOFF WEST.
RY 06/24 SLOPES UP TO THE EAST.
+500 FT RIDGELINE PARALLEL TO RY 1000 FT SOUTH.
ARPT CLOSED NOV 1- MAY 1.
EXPECT SIGNIFICANT TURBULENCE AND DOWNDRAFTS NEAR RY.
FOR CD CTC SEATTLE ARTCC AT 253-351-3694.

Instrument Procedures

There are no published instrument procedures at 00S.

Some nearby airports with instrument procedures:

S21 - Sunriver Airport (33 nm SE)
KBDN - Bend Municipal Airport (38 nm E)
KRDM - Roberts Field Airport (40 nm E)
77S - Hobby Field Airport (42 nm W)
KEUG - Mahlon Sweet Field Airport (49 nm W)
 
Loc | Ops | Rwys | IFR | FBO | Links
Com | Nav | Svcs | Stats | Notes
Area around 00S (Mc Kenzie Bridge State Airport)
 
Road maps at: MapQuest Bing Google
 
Aerial photo
WARNING: Photo may not be current or correct
Aerial photo of 00S (Mc Kenzie Bridge State Airport)
Photo by Clif Cox
Photo taken 26-May-2007

Do you have a better or more recent aerial photo of Mc Kenzie Bridge State Airport that you would like to share? If so, please send us your photo.

 
Sectional chart

 
Airport distance calculator
Flying to Mc Kenzie Bridge State Airport? Find the distance to fly.

From to 00S

Sunrise and sunset
Times for 14-Apr-2021
 Local
(UTC-7)
 Zulu
(UTC)
Morning civil twilight05:5712:57
Sunrise06:2713:27
Sunset19:5002:50
Evening civil twilight20:2003:20

Current date and time
Zulu (UTC)  15-Apr-2021 06:32:33
Local (UTC-7)  14-Apr-2021 23:32:33
 
METAR
KS21 
33nm SE 
150615Z AUTO 22004KT 10SM FEW050 FEW110 01/M06 A3009 RMK AO2
KBDN 
38nm E 
150615Z AUTO 25003KT 10SM CLR 05/M07 A3005 RMK AO2
KRDM 
40nm E 
150556Z AUTO 24004KT 10SM CLR 05/M07 A3003 RMK AO2 SLP172 T00501072 10139 20033 50000
K77S 
42nm W 
150615Z AUTO 00000KT 10SM BKN055 OVC065 04/02 A3004 RMK A01
KEUG 
49nm W 
150554Z 00000KT 10SM CLR 08/00 A3004 RMK AO2 SLP173 T00780000 10200 20078 50008
TAF
KBDN 
38nm E 
150520Z 1506/1606 23004KT P6SM SCT120 FM150900 VRB04KT P6SM FEW120 FM151800 31010G18KT P6SM SKC FM152100 32017G25KT P6SM FEW250 FM160000 34012G18KT P6SM FEW250 FM160200 34008KT P6SM SKC
KRDM 
40nm E 
150520Z 1506/1606 25005KT P6SM SCT120 FM150900 VRB03KT P6SM FEW120 FM151600 36009G16KT P6SM SKC FM152100 36015G21KT P6SM FEW250 FM160000 01010G16KT P6SM FEW250 FM160200 01007KT P6SM SKC
NOTAMs
Click for the latest NOTAMs
NOTAMs are issued by the DoD/FAA and will open in a separate window not controlled by AirNav.

 

 
 

Would you like to see your business listed on this page?

 If your business provides an interesting product or service to pilots, flight crews, aircraft, or users of the Mc Kenzie Bridge State Airport, you should consider listing it here.  To start the listing process, click on the button below
 
Add a business
 

Other Pages about Mc Kenzie Bridge State Airport

www.oregon.gov/...
 
Update a link
 
Copyright © AirNav, LLC. All rights reserved. Privacy Policy  Contact